CAPE
2865 2868 2706 2624 2475 2482 2555 2542 2278 2000 954 885 1250 1114 951 845 773 323 911 1263 1695 1609 1388 1089 1052 1372 1178 601 965 1386 1262 1154 1341 1199 1242 1496 1579 1528 1341 1385 1461 1594 1774 1860 1869 1899 1941 2014 2095 2188 2204 2213 2239 2268 2309 2368 2391 2427 2446 2495 2471 2439 2361 2230 2111 1969 1824 1708 1598 1535 1473 1371 1258 1046
2588 2654 2563 2589 2681 2623 2684 2492 2371 2508 1647 1687 1508 1246 1234 1192 1043 889 836 813 1369 1646 1137 1444 1496 1630 1673 2130 2128 1645 1321 1017 1388 1383 1416 1509 1560 1611 1774 1867 1939 1993 2022 2014 2046 2096 2165 2246 2337 2432 2465 2490 2553 2634 2642 2611 2623 2624 2636 2623 2496 2391 2338 2289 2195 2098 1994 1862 1739 1623 1546 1480 1414 1313
1914 2120 2152 2127 2185 2392 2609 2590 2560 2595 1939 1720 1529 1618 1621 1350 1206 1175 1386 1004 284 1188 1973 1849 1754 1786 1946 2457 2598 2544 2399 2237 2091 2031 1992 1975 1971 1966 1954 1956 1922 1954 2030 2123 2194 2274 2387 2494 2608 2713 2743 2776 2825 2841 2805 2813 2800 2729 2541 2379 2334 2261 2197 2177 2136 2076 1975 1885 1779 1667 1568 1513 1473 1430
1953 1947 2038 2070 2120 2051 2245 2405 2409 2696 2296 2265 2010 1926 1793 1724 1561 1683 1586 1238 862 1186 1512 1354 1403 1744 2283 2620 2747 2689 2574 2409 2289 2234 2237 2215 2252 2285 2293 2320 2332 2339 2377 2420 2525 2679 2785 2858 2921 2923 2932 2971 2970 2927 2914 2759 2477 2391 2336 2264 2165 2070 1983 1887 1782 1686 1577 1542 1582 1574 1544 1515 1477 1452
1953 1827 1754 1880 2043 2231 2506 2407 2412 2796 2701 2346 2284 2298 2196 2273 2128 2006 1890 1767 1676 1650 1738 1918 2014 2288 2528 2714 2783 2738 2617 2503 2389 2355 2461 2672 2773 2866 2889 2915 3012 3126 3177 3219 3231 3212 3180 3152 3113 3081 3093 3095 3012 2690 2517 2323 2272 2249 2178 2062 1972 1884 1805 1725 1682 1645 1599 1536 1448 1361 1259 1280 1283 1352
2244 2140 1957 1856 1880 1990 2612 2551 2331 2390 2663 2492 2383 2381 2316 2248 2145 2073 1986 1997 2132 2145 2209 2314 2336 2486 2652 2808 2862 2837 2759 2717 2697 2753 2916 3054 3080 3038 3041 3173 3413 3534 3566 3571 3510 3401 3354 3268 3220 3200 3091 2742 2359 2290 2224 2208 2177 2069 1991 2037 2093 2102 2081 2040 1998 1963 1931 1861 1786 1675 1556 1433 1335 1211
2126 2250 2236 2144 2060 1739 1909 2052 2214 2240 2383 2477 2453 2445 2418 2400 2356 2306 2293 2343 2354 2385 2452 2482 2585 2698 2857 2908 2938 2907 2890 2844 2808 2947 3140 3239 3282 3329 3409 3533 3653 3692 3707 3630 3563 3474 3378 3294 3143 2744 2562 2328 2216 2180 2163 2142 2060 1998 2078 2194 2240 2244 2238 2178 2114 2069 1992 1896 1802 1709 1644 1572 1497 1379
2125 2119 2320 2480 2522 2235 2011 1876 1940 2091 2296 2382 2403 2376 2426 2508 2525 2616 2626 2534 2573 2619 2619 2677 2713 2822 2907 3004 3010 2913 2795 2818 3035 3222 3310 3397 3466 3483 3519 3615 3698 3750 3727 3639 3476 3416 3294 2864 2622 2420 2295 2218 2166 2121 2094 2096 2100 2158 2193 2201 2208 2098 1813 1581 1533 1452 1328 1190 1105 1061 1292 1471 1484 1418
2146 2062 2114 2272 2442 2519 2238 2081 2024 2078 2148 2242 2295 2334 2385 2429 2514 2545 2601 2680 2672 2718 2755 2798 2825 2973 3128 3034 2760 2750 2847 2995 3111 3258 3473 3560 3494 3442 3392 3458 3571 3594 3578 3443 3376 3213 2765 2472 2317 2219 2168 2130 2098 2071 2072 2098 2170 2137 1886 1338 865 714 648 584 524 468 387 49 635 907 1160 1306 1392 1384
2268 2163 2095 2080 2150 2274 2374 2271 2173 2216 2267 2298 2297 2245 2168 2104 2291 2512 2615 2708 2794 2862 2881 2912 3058 2820 2299 2442 2502 2633 2819 3051 3290 3500 3603 3474 3305 3182 3338 3595 3565 3345 3328 3222 3062 2741 2534 2292 2166 2075 2059 2059 2033 2044 2059 2093 1898 988 653 698 692 666 620 588 557 530 535 563 587 710 950 1107 1210 1230
2360 2359 2288 2231 2209 2212 2200 2214 2177 2117 2165 2242 2316 2369 2317 2097 2023 2165 2370 2546 2735 2831 2875 2786 2530 2508 2593 2700 2820 2933 3152 3406 3516 3530 3298 2951 2999 3650 3557 3514 3149 2957 2995 2785 2648 2608 2343 2188 2068 2008 1983 1974 1957 1962 2006 1648 726 668 694 673 663 634 593 556 531 534 530 476 536 635 740 894 1059 1094
2194 2290 2368 2394 2404 2373 2326 2269 2150 2009 2014 2074 2201 2281 2308 2200 2075 2056 2131 2265 2429 2515 2574 2638 2690 2722 2810 2931 3082 3233 3333 3302 3036 2877 2927 3115 3234 3366 3313 3048 2606 2766 2739 2683 2743 2465 2150 2015 1960 1937 1904 1846 1869 1894 1372 752 713 743 686 628 618 363 0 0 0 0 0 0 0 512 592 750 939 1001
1926 2107 2316 2382 2395 2419 2798 2419 2398 2296 2037 1972 2086 2168 2142 2083 2059 2127 2238 2371 2456 2514 2567 2662 2748 2842 2943 3006 3017 2956 2856 2840 2923 3044 3143 3235 3366 3254 3098 2564 2254 2578 2748 2797 2761 2331 2107 1944 1904 1899 1832 1733 1770 1281 346 678 796 759 640 513 0 0 0 0 0 0 0 0 0 0 486 597 761 898
1996 1953 2003 2192 3048 3096 3073 2628 2522 2506 2396 2221 1940 1933 2004 2099 2177 2268 2386 2478 2498 2532 2592 2646 2698 2765 2792 2769 2792 2881 2960 3035 3058 3096 3196 3277 3304 3191 2656 2169 2401 2710 2876 2886 2809 2290 2078 1949 1943 1881 1787 1596 1347 545 58 679 764 606 110 0 0 0 0 0 0 0 0 0 0 0 0 298 607 691
2024 2088 2085 2037 2481 3501 3803 3235 2664 2502 2473 2400 2185 2029 2168 2317 2096 2218 2356 2402 2408 2491 2602 2657 2694 2770 2814 2878 2957 3070 3128 3118 3108 3179 3233 3246 3073 2649 2424 2439 2718 3073 2882 2844 2607 2188 1967 1946 1941 1904 1564 1365 876 0 529 642 511 0 0 0 0 0 0 0 0 0 0 0 0 0 0 0 120 480
1896 1937 2044 2131 2135 2128 2433 2680 2747 2644 2451 2312 2202 2108 2110 2127 2385 2278 2198 2255 2362 2504 2607 2677 2786 2883 2970 2966 2971 3045 3044 3087 3125 3128 3029 2828 2693 2658 2639 2692 3086 3144 2886 2694 2375 2196 1776 1632 1929 1803 874 810 687 466 237 0 0 0 0 0 0 0 0 0 0 0 0 0 0 0 0 0 0 0
1973 1904 1876 1923 2037 2116 2949 3306 2760 2554 2472 2392 2294 2197 2111 2028 2104 2321 2436 2324 2308 2320 2452 2637 2748 2838 2937 3008 3003 2978 2900 2847 2272 2332 2310 2356 2516 2584 2707 3116 3309 3129 2795 2376 2373 2114 1709 1673 1667 1295 945 883 788 548 0 0 0 0 0 0 0 0 0 0 0 0 0 0 0 0 0 0 0 0
2050 2036 1970 1900 1883 1937 2047 2176 2351 2434 2451 2407 2373 2325 2210 2016 1865 1798 1912 2437 2610 2530 2626 2759 2787 2808 2965 2970 2664 2305 1997 1887 1778 1734 1994 2107 2251 2577 3238 3287 3180 2973 2641 2226 2099 1978 1796 1755 1549 1078 881 803 710 470 0 0 0 0 0 0 0 0 0 0 0 0 0 0 0 0 0 0 0 0
1876 1989 2039 2014 1963 1940 1961 1988 2028 2094 2156 2188 2167 2078 1884 1731 1621 1545 1548 1617 1979 2745 3110 3131 3013 2866 2571 2318 2156 2095 2097 2105 2289 2517 2652 2765 2996 3198 3150 3064 2987 2884 2462 2050 1892 1844 1852 1590 1353 887 828 776 650 352 0 0 0 0 0 0 0 0 0 0 0 0 0 0 0 0 0 0 0 0
1748 1790 1892 1997 2033 2017 1994 2004 2061 2103 2096 2083 2053 1950 1787 1652 1555 1484 1440 1443 1534 1689 1978 2275 2360 2303 2160 2064 2299 2626 2715 2982 3126 3165 3192 3116 3094 3117 3112 3099 3055 2888 2362 2050 1989 1891 1819 1451 1164 879 885 777 562 180 0 0 0 0 0 0 0 0 0 0 0 0 0 0 0 0 0 0 0 0
1843 1881 1872 1872 1892 1934 1952 1960 2002 2090 2171 2174 2165 2037 1787 1665 1581 1526 1471 1452 1498 1573 1705 1828 1926 2024 2130 2387 2859 3135 3541 3715 3725 3709 3556 3469 3354 3320 3316 3240 2975 2576 2207 2128 1953 1849 1888 1461 1090 982 965 816 404 0 0 0 0 0 0 0 0 0 0 0 0 0 0 0 0 0 0 0 0 0
1693 1746 2515 2476 1838 1810 1814 1845 1912 1982 2036 1971 1854 1750 1799 1834 1857 1884 1908 2012 2051 2020 1987 2019 2132 2231 2743 3201 3543 3893 3962 3746 3538 3379 3372 3466 3428 3493 3411 3038 2700 2422 2202 1907 1785 1849 1810 1533 1167 1082 1062 714 64 0 0 0 0 0 0 0 0 0 0 0 0 0 0 0 0 0 0 0 0 0
1818 1744 2098 2773 2509 1897 1788 1763 1757 1772 1770 1732 1632 1542 1671 1851 2000 2113 2271 2587 2919 3156 3245 3368 3473 3522 3658 3892 3999 3728 3493 3243 3174 3246 3318 3467 3542 3378 2998 2686 2582 2329 2034 1724 1929 2003 1895 1648 1325 1203 1071 517 0 0 0 0 0 0 0 0 0 0 0 0 0 0 0 0 0 0 0 0 0 0
1989 1953 1876 1799 2041 2298 2066 1830 1729 1680 1641 1601 1508 1438 1508 1737 1934 2107 2457 2883 3097 3245 3408 3494 3484 3614 3653 3605 3101 2935 3081 3196 3235 3190 3215 3214 3126 2955 2765 2669 2309 2165 2256 2045 2044 1999 1894 1725 1579 1288 996 181 0 0 0 0 0 0 0 0 0 0 0 0 0 0 0 0 0 0 0 0 0 0
2082 2063 2029 1979 2045 2258 2373 2312 2134 1923 1786 1722 1680 1718 1711 1665 1737 1863 2199 2590 4190 3330 3283 3360 3343 3292 3164 3228 3338 3438 3455 3384 3256 3179 3168 3099 2895 2770 2703 2389 2254 2356 2298 2188 2093 2024 2007 1775 1628 1380 823 144 0 0 0 0 0 0 0 0 0 0 0 0 0 0 0 0 0 0 0 0 0 0
2118 2121 2073 2024 1982 2083 2374 2681 2892 2937 2789 2649 2512 2384 2289 2155 2039 1980 1963 2230 2585 3044 3129 3124 3157 3188 3259 3330 3385 3402 3358 3304 3243 3180 3052 2870 2692 2615 2396 2279 2312 2397 2525 2197 2112 2138 1920 1865 1497 1284 746 141 0 0 0 12 0 0 0 0 0 0 0 0 0 0 0 0 0 0 0 0 0 0
2140 2144 2127 2073 2006 1929 1874 1962 2110 2216 2399 2748 2936 3063 3055 2854 2656 2548 2540 2553 2631 2804 2900 2967 3048 3110 3142 3174 3197 3237 3231 3162 3089 3009 2900 2792 2683 2578 2441 2282 2269 2448 2412 2393 2226 2043 1837 1669 1410 1253 861 331 188 218 219 259 300 235 169 0 0 0 0 0 0 0 0 0 0 0 0 0 0 0
2190 2190 2182 2155 2135 2070 1981 1852 1721 1624 1530 1462 1770 2475 3029 3232 3289 3271 3207 3163 3156 3165 3250 3294 3323 3309 3270 3233 3237 3238 3169 3088 3024 2945 2870 2834 2682 2530 2338 2213 2282 2350 2412 2353 2123 1873 1655 1536 1450 1225 961 810 643 458 413 411 421 404 204 0 0 0 0 0 0 0 0 0 0 0 0 0 0 0
2248 2256 2246 2218 2199 2180 2142 2097 2034 1952 1860 1790 1767 1703 1736 2027 2595 3057 3240 3276 3306 3370 3430 3495 3536 3501 3452 3398 3326 3244 3133 3009 2827 2782 2779 2685 2490 2182 2040 2146 2185 2349 2453 2232 1778 1478 1542 1563 1417 1167 945 867 754 628 568 592 530 337 0 0 0 0 0 0 0 0 0 0 0 0 0 0 0 0
2286 2277 2254 2246 2235 2219 2218 2210 2220 2235 2286 2307 2344 2395 2370 2291 2169 2008 2294 2849 3177 3370 3491 3588 3605 3590 3538 3496 3390 3238 3078 2899 2767 2657 2585 2419 2152 1840 1832 1978 2162 2367 2415 2324 1802 1473 1513 1523 1322 1107 923 842 855 769 681 620 490 196 0 0 0 0 0 0 0 0 0 0 0 0 0 0 0 0
2153 2178 2205 2214 2213 2227 2240 2280 2315 2362 2418 2487 2517 2602 2673 2705 2771 2780 2552 2531 2962 3242 3430 3533 3578 3569 3524 3420 3259 3036 2762 2660 2536 2248 2150 2117 2052 1965 2030 2154 2362 2489 2420 2079 1622 1279 1488 1496 1193 1018 945 952 915 838 697 538 363 177 0 0 0 0 0 0 0 0 0 0 0 0 0 0 0 0
1946 2000 2050 2108 2164 2228 2289 2358 2415 2481 2564 2642 2755 2872 3084 3144 3172 3229 3137 3119 3110 3196 3347 3470 3528 3490 3385 3264 3030 2661 2401 2397 2385 2266 2205 2172 2198 2220 2318 2438 2430 2385 2188 1770 1207 1335 1471 1310 1132 1042 1016 891 767 768 681 517 293 0 0 0 0 0 0 0 0 0 0 0 0 0 0 0 0 0
1968 1873 1825 1930 2051 2179 2310 2418 2506 2599 2706 2915 3122 3335 3542 3676 3693 3571 3493 3529 3601 3561 3512 3454 3385 3389 3281 3027 2625 2332 2258 2208 2228 2166 2156 2253 2359 2515 2488 2482 2331 2099 1836 1396 1443 1485 1366 1191 1077 1104 1018 760 696 654 537 383 64 0 0 0 0 0 0 0 0 0 0 0 0 0 0 0 0 0
2396 2329 2308 2281 2227 2201 2215 2312 2415 2528 2642 2780 2903 3062 3299 3578 3735 3784 3758 3789 3814 3822 3767 3611 3570 3482 3183 2794 2513 2329 2128 2105 2142 2287 2399 2454 2426 2335 2247 2216 2015 1889 1758 1683 1688 1552 1297 1179 1117 1028 854 662 583 534 389 84 0 0 0 0 0 0 0 0 0 0 0 0 0 0 0 0 0 0
2660 2664 2646 2632 2586 2496 2428 2373 2317 2329 2409 2463 2504 2644 2741 2919 2960 3364 3401 3576 3638 3693 3556 3466 3448 3203 2911 2808 2654 2392 2161 2153 2289 2452 2488 2405 2306 2161 2146 2144 2063 1893 1754 1725 1593 1349 1217 1214 1042 810 635 548 536 477 21 0 0 0 0 0 0 0 0 0 0 0 0 0 0 0 0 0 0 0
2720 2771 2802 2782 2764 2708 2615 2530 2455 2387 2359 2404 2416 2462 2515 2423 2426 2198 2276 2389 2460 2697 2947 3099 3029 2951 2869 2653 2413 2299 2324 2370 2450 2482 2330 2119 2022 2075 2105 2076 1971 1934 1821 1722 1525 1325 1229 1060 776 598 540 508 471 418 277 0 0 0 0 0 0 0 0 0 0 0 0 0 0 0 0 0 0 0
2777 2780 2788 2787 2747 2704 2626 2548 2534 2478 2419 2618 2649 2477 2270 2365 1952 2048 2188 2377 2665 2756 2776 2678 2744 2719 2576 2418 2348 2395 2534 2632 2588 2334 2044 1917 1986 2079 2091 1954 1808 1747 1551 1393 1343 1324 1112 810 690 579 513 447 376 295 160 0 0 0 0 0 0 0 0 0 0 0 0 0 0 0 0 0 0 0
2892 2864 2801 2786 2763 2708 2720 2681 2660 2613 2729 2568 2398 2074 2083 2022 1969 1794 1888 1951 2462 2567 2521 2516 2564 2460 2289 2256 2335 2404 2424 2324 2068 1830 1829 1868 1960 2010 1902 1682 1528 1315 1262 1246 1199 1022 882 743 622 552 470 415 358 303 171 0 0 0 0 0 0 0 0 0 0 0 0 0 0 0 0 0 0 0
3030 2997 2951 2910 2849 2957 2949 2987 2911 2819 2732 2451 2076 2078 2533 2481 2072 1771 1750 1772 1872 2176 2276 2258 2338 2338 2186 2132 2174 2154 2030 1968 1848 1834 1800 1920 1861 1663 1435 1239 1137 1110 1083 1143 1069 964 742 616 594 550 470 416 382 308 76 0 0 0 0 0 0 0 0 0 0 0 0 0 0 0 0 0 0 0
3128 3154 3161 3110 3106 3132 3110 2922 2761 2692 2305 2272 2238 2024 2341 2561 2353 2106 2065 2150 2093 2066 2154 2147 2045 2070 2053 1913 1922 2046 2110 1912 1789 1671 1619 1498 1299 1176 1031 1036 1049 1098 1120 1020 808 616 610 638 588 484 384 275 47 0 0 0 0 0 0 0 0 0 0 0 0 0 0 0 0 0 0 0 0 0
2987 3154 3277 3310 3290 3091 2781 2702 2548 2383 2236 2136 2091 1896 2270 2504 2629 2611 2256 2283 2315 2266 2184 2027 1897 1866 1888 1963 2069 2080 1967 1789 1692 1546 1350 1153 1036 1004 998 1040 1108 1146 1008 770 637 612 607 592 408 0 0 0 0 0 0 0 0 0 0 0 0 0 0 0 0 0 0 0 0 0 0 0 0 0
2812 2972 3175 3329 3368 3090 2800 2652 2599 2389 2181 2215 1893 2258 2429 2486 2558 2682 2449 2036 2235 2382 2404 2340 2212 2132 2080 2074 2036 1853 1702 1634 1496 1328 1190 1137 1126 1209 1209 1168 1074 909 811 741 652 631 529 327 0 0 0 0 0 0 0 0 0 0 0 0 0 0 0 0 0 0 0 0 0 0 0 0 0 0
3150 3095 3044 3174 3296 3283 3091 2782 2455 2023 2271 2398 2409 2424 2494 2527 2564 2710 2841 2676 2204 2226 2270 2327 2349 2257 2092 1855 1747 1636 1511 1414 1266 1097 1126 1178 1202 1139 998 949 780 747 660 602 538 462 384 194 0 0 0 0 0 0 0 0 0 0 0 0 0 0 0 0 0 0 0 0 0 0 0 0 0 0
3226 3336 3308 3265 3282 3331 3357 2955 2874 2829 2627 2612 2602 2585 2613 2773 2828 2844 2332 2458 2390 2308 2280 2218 1956 1963 1600 1517 1355 1276 1227 1144 997 975 929 915 935 799 572 496 477 449 487 464 415 350 214 0 0 0 0 0 0 0 0 0 0 0 0 0 0 0 0 0 0 0 0 0 0 0 0 0 0 0
3367 3397 3375 3281 3249 3348 3346 3204 2919 2565 2472 2484 2564 2604 2640 2601 2604 2675 2233 1837 2062 2081 1980 1720 1466 1333 1431 1280 1080 1012 992 874 776 758 691 557 482 511 427 462 432 398 390 318 296 297 195 0 0 0 0 0 0 0 0 0 0 0 0 0 0 0 0 0 0 0 0 0 0 0 0 0 0 0
Wind_Speed
10 9 9 10 10 10 7 8 10 9 9 9 10 10 9 9 11 13 13 14 12 12 10 11 12 9 9 10 9 9 9 13 16 17 20 21 22 24 25 25 25 25 26 27 28 29 30 31 32 33 35 36 37 37 39 40 41 42 42 43 43 44 44 45 45 46 46 47 46 46 46 45 46 46
9 10 10 10 10 10 7 7 8 8 9 7 8 10 10 7 8 9 9 13 11 12 11 9 9 11 11 8 8 5 7 13 16 16 19 20 22 25 22 20 21 22 23 24 26 28 30 31 32 33 34 35 36 37 38 38 39 39 39 40 41 42 42 43 43 45 46 46 46 46 47 46 46 46
9 9 9 9 11 10 8 7 5 7 8 8 8 9 7 8 6 5 5 8 11 7 9 9 8 8 10 9 7 6 5 9 12 14 17 17 18 20 15 16 18 20 21 23 25 27 29 31 32 33 33 34 34 35 34 35 36 36 37 37 38 38 40 40 41 43 43 44 45 45 46 46 46 46
9 8 9 8 9 10 8 8 6 5 7 7 7 6 6 8 7 4 4 6 13 8 6 8 11 10 7 7 6 5 5 7 11 13 15 14 12 13 12 11 16 19 21 22 24 26 28 29 31 31 31 31 29 29 31 32 33 33 33 34 34 35 36 37 38 40 40 41 42 43 44 44 45 46
9 9 8 8 8 7 7 8 5 5 5 6 8 8 6 6 6 4 4 6 11 10 5 6 6 6 5 5 2 3 5 8 10 11 12 9 8 12 12 8 11 16 18 21 23 23 25 27 27 27 25 25 26 27 28 28 28 29 30 30 30 31 33 34 35 37 38 39 40 40 41 42 43 44
10 8 8 8 7 5 5 4 4 3 3 3 5 8 6 6 6 5 2 5 5 10 7 6 5 5 1 2 1 4 5 9 9 9 8 6 8 11 11 7 6 12 16 18 19 20 22 22 20 19 21 22 23 24 24 25 26 26 27 27 28 29 31 32 33 35 36 37 38 39 39 40 41 42
9 8 7 8 6 3 4 4 4 2 1 1 2 5 5 6 7 5 4 3 4 6 8 4 5 4 3 1 4 2 4 6 7 8 6 4 5 10 9 5 4 8 11 13 14 16 16 14 16 18 19 20 20 21 22 22 23 24 23 22 24 26 28 30 31 32 33 34 35 35 36 37 39 40
9 9 8 8 6 4 3 3 2 2 1 0 1 1 2 3 6 5 4 3 3 3 4 5 2 3 2 2 1 1 2 5 6 5 4 2 5 9 7 4 3 4 5 10 13 12 13 14 13 13 13 14 17 17 17 16 17 16 17 18 18 18 20 23 26 29 31 33 34 34 34 35 37 39
8 8 9 9 6 4 4 3 2 2 0 1 1 0 0 0 2 4 3 4 2 3 3 4 4 4 4 3 2 1 2 3 3 3 2 3 6 10 7 3 1 4 6 9 9 11 11 10 10 10 11 12 13 14 14 14 13 13 13 15 17 18 18 20 22 25 28 nan 32 33 33 35 36 37
6 7 8 8 7 6 6 5 3 3 2 1 1 2 2 1 2 1 2 3 2 2 2 3 6 7 4 6 3 2 2 2 5 5 1 3 6 9 5 1 3 7 9 10 11 14 14 13 11 11 11 12 13 14 13 11 11 12 12 14 17 19 20 21 21 23 24 26 28 30 32 34 35 35
5 6 6 7 7 8 7 6 5 4 3 3 2 1 1 3 5 3 2 2 2 3 3 5 4 4 5 5 4 5 6 4 1 2 2 1 6 9 9 3 4 8 9 11 12 15 15 15 17 14 13 14 15 13 12 12 12 14 15 17 19 20 20 20 20 21 22 23 25 26 28 31 33 34
3 5 5 6 7 8 8 8 6 6 5 4 3 2 3 4 5 4 4 4 4 4 5 5 5 6 6 7 5 7 9 7 5 3 5 3 2 7 7 8 7 10 14 12 13 19 18 18 19 17 16 15 14 13 15 15 17 17 19 21 21 21 nan nan nan nan nan nan nan 23 23 26 29 30
1 2 3 4 6 8 10 12 10 8 8 7 5 3 4 4 5 6 6 5 5 5 7 7 8 7 7 5 6 7 7 5 2 3 6 5 6 8 8 6 8 11 14 15 17 19 22 20 21 22 20 19 20 21 20 20 19 19 21 21 nan nan nan nan nan nan nan nan nan nan 21 21 23 26
2 2 2 3 7 10 11 12 13 13 12 11 8 6 7 5 5 6 7 7 7 7 8 7 8 7 5 5 7 8 9 10 7 6 7 7 6 9 10 13 12 12 17 16 16 18 23 23 21 23 22 22 25 26 nan 23 23 21 21 nan nan nan nan nan nan nan nan nan nan nan nan 20 20 22
3 3 2 2 3 5 7 9 13 14 14 13 12 11 9 8 8 6 7 8 10 10 10 11 11 8 6 5 9 11 10 11 8 6 9 9 10 13 13 12 12 15 19 20 21 17 22 26 23 23 23 25 28 nan 26 24 23 nan nan nan nan nan nan nan nan nan nan nan nan nan nan nan 19 19
5 5 4 4 5 5 6 7 9 11 13 14 13 11 10 9 9 8 8 8 10 13 12 12 11 11 7 6 12 12 13 12 13 12 11 10 11 13 15 16 15 16 21 23 23 18 21 26 27 25 25 28 31 31 27 nan nan nan nan nan nan nan nan nan nan nan nan nan nan nan nan nan nan nan
6 7 7 6 7 7 7 7 8 10 10 11 13 12 9 6 5 4 5 7 8 12 14 14 14 13 11 10 12 16 15 16 16 15 12 11 13 16 16 16 17 16 23 24 24 23 21 26 27 25 26 31 31 31 nan nan nan nan nan nan nan nan nan nan nan nan nan nan nan nan nan nan nan nan
8 9 9 8 8 9 9 9 9 10 9 9 10 10 9 8 5 5 6 4 3 10 12 16 16 16 18 12 16 16 17 16 14 15 12 13 13 16 17 19 20 17 22 23 25 24 22 25 27 24 26 31 32 31 nan nan nan nan nan nan nan nan nan nan nan nan nan nan nan nan nan nan nan nan
10 10 10 10 9 9 10 11 11 11 10 10 10 10 10 10 8 8 9 12 12 11 11 14 17 18 20 17 17 17 19 19 18 17 15 15 17 19 20 20 20 19 21 25 28 26 23 25 28 25 27 30 32 30 nan nan nan nan nan nan nan nan nan nan nan nan nan nan nan nan nan nan nan nan
13 12 11 12 11 11 11 10 10 11 12 12 11 12 11 10 10 9 9 11 14 13 11 10 13 17 18 18 18 23 23 22 23 23 23 23 22 22 21 20 21 22 21 26 28 27 26 27 29 26 29 32 32 30 nan nan nan nan nan nan nan nan nan nan nan nan nan nan nan nan nan nan nan nan
13 14 14 13 13 12 13 12 13 11 12 12 13 13 13 12 12 9 12 14 14 12 11 9 8 10 13 16 20 22 19 22 24 27 24 20 24 23 20 21 23 23 23 25 28 28 27 28 30 26 29 31 32 nan nan nan nan nan nan nan nan nan nan nan nan nan nan nan nan nan nan nan nan nan
15 15 12 13 14 13 13 13 15 13 13 11 12 13 13 13 11 10 13 18 18 16 13 10 9 12 15 17 19 22 21 23 26 26 20 23 28 24 24 22 25 24 25 26 28 28 27 30 31 30 30 32 nan nan nan nan nan nan nan nan nan nan nan nan nan nan nan nan nan nan nan nan nan nan
15 16 15 11 11 13 12 12 14 13 13 10 11 11 13 12 12 11 17 19 19 22 21 18 18 18 16 18 20 20 19 21 21 22 21 25 27 24 26 28 28 27 25 25 28 28 27 31 32 34 34 32 nan nan nan nan nan nan nan nan nan nan nan nan nan nan nan nan nan nan nan nan nan nan
16 17 18 16 11 10 10 13 14 12 12 11 11 13 13 13 12 15 20 19 20 21 21 21 22 21 23 23 22 21 20 19 19 20 20 22 25 26 28 29 29 29 27 26 31 30 30 32 33 32 35 36 nan nan nan nan nan nan nan nan nan nan nan nan nan nan nan nan nan nan nan nan nan nan
15 18 19 20 17 13 12 13 13 11 12 12 11 12 13 15 14 21 23 19 21 23 24 25 26 27 27 23 22 21 20 19 19 19 19 22 25 28 29 29 29 27 27 27 33 33 33 34 34 33 34 35 nan nan nan nan nan nan nan nan nan nan nan nan nan nan nan nan nan nan nan nan nan nan
15 17 19 20 18 16 15 15 15 13 13 12 12 9 10 12 15 19 21 23 24 25 29 30 30 29 28 25 23 22 21 21 21 21 22 25 27 28 30 33 33 30 28 29 38 35 38 34 33 35 33 33 nan nan nan nan nan nan nan nan nan nan nan nan nan nan nan nan nan nan nan nan nan nan
14 18 19 19 15 15 15 16 15 15 14 16 13 7 9 13 15 19 21 23 26 27 29 31 30 28 27 26 23 23 23 23 24 24 26 28 30 30 32 34 37 37 34 36 36 37 37 36 34 37 32 31 31 30 33 34 33 32 30 nan nan nan nan nan nan nan nan nan nan nan nan nan nan nan
16 18 19 19 15 16 16 17 17 15 16 16 11 11 12 15 20 22 22 23 26 28 29 29 28 26 26 26 25 25 26 27 27 28 31 32 33 35 35 36 38 38 41 42 39 38 37 37 35 33 34 33 34 33 33 34 34 34 32 nan nan nan nan nan nan nan nan nan nan nan nan nan nan nan
18 16 14 15 16 17 19 19 18 18 15 12 12 13 16 19 23 23 24 25 28 28 27 26 25 24 24 25 27 28 30 31 32 34 35 35 35 36 38 40 40 40 43 44 43 39 37 35 35 33 32 31 36 34 37 36 35 33 nan nan nan nan nan nan nan nan nan nan nan nan nan nan nan nan
11 12 15 15 17 21 23 25 25 23 20 17 15 15 21 26 24 26 27 29 28 25 25 24 23 23 25 26 27 30 33 36 36 37 38 38 37 39 43 45 40 37 37 39 37 33 31 31 33 35 35 35 37 40 39 41 38 36 nan nan nan nan nan nan nan nan nan nan nan nan nan nan nan nan
18 19 21 25 25 26 24 22 22 22 22 23 24 27 29 28 27 27 28 28 26 25 24 24 23 26 27 29 32 32 34 36 35 37 40 40 40 42 42 44 42 38 35 33 30 28 28 30 32 36 40 40 40 40 40 43 44 40 nan nan nan nan nan nan nan nan nan nan nan nan nan nan nan nan
21 27 32 33 31 29 28 26 27 27 27 26 28 30 31 30 28 26 24 25 26 25 25 26 29 29 29 28 29 33 34 35 35 37 39 40 40 41 42 42 39 38 38 34 32 30 31 33 37 40 43 44 44 41 43 45 46 nan nan nan nan nan nan nan nan nan nan nan nan nan nan nan nan nan
28 31 30 28 28 28 26 26 26 28 29 29 31 32 33 32 31 30 29 26 26 26 28 26 25 26 28 30 33 34 34 33 34 33 36 37 40 38 39 40 39 40 41 39 38 36 36 37 39 43 45 44 45 47 47 44 nan nan nan nan nan nan nan nan nan nan nan nan nan nan nan nan nan nan
25 24 23 24 24 25 26 26 27 28 31 32 33 32 34 34 32 30 27 25 25 27 25 25 27 28 29 30 31 31 30 31 31 33 36 37 38 39 38 39 37 38 41 42 40 40 39 39 41 41 40 39 38 40 42 nan nan nan nan nan nan nan nan nan nan nan nan nan nan nan nan nan nan nan
23 23 23 22 23 23 24 23 25 29 32 33 33 34 33 33 34 36 32 25 23 22 26 28 27 26 26 28 29 29 29 31 32 33 34 37 37 38 39 41 41 40 40 41 39 38 39 40 41 39 37 36 36 35 nan nan nan nan nan nan nan nan nan nan nan nan nan nan nan nan nan nan nan nan
23 22 21 21 21 23 23 23 26 30 32 33 34 34 36 38 39 30 20 22 27 29 31 30 28 27 28 29 28 29 31 32 33 35 35 37 38 39 39 40 40 38 37 38 39 39 40 42 42 42 40 38 38 36 37 nan nan nan nan nan nan nan nan nan nan nan nan nan nan nan nan nan nan nan
22 21 20 20 22 23 24 26 28 30 33 34 36 39 37 38 32 22 21 29 30 31 33 35 31 33 36 36 33 30 32 34 35 36 36 36 38 38 38 35 35 36 36 34 38 41 41 40 41 43 43 41 39 39 37 nan nan nan nan nan nan nan nan nan nan nan nan nan nan nan nan nan nan nan
18 19 21 22 23 24 25 26 30 32 36 43 44 38 33 36 31 20 26 32 31 33 35 36 35 36 39 39 36 31 31 34 36 37 36 38 38 36 35 35 34 35 35 36 39 41 41 42 43 43 44 42 41 40 40 nan nan nan nan nan nan nan nan nan nan nan nan nan nan nan nan nan nan nan
21 22 22 22 21 24 26 28 34 42 47 44 39 32 30 34 35 30 33 33 35 37 38 39 38 34 33 33 34 35 36 38 38 38 38 38 39 38 35 35 36 35 38 39 39 41 42 41 42 44 44 44 44 44 nan nan nan nan nan nan nan nan nan nan nan nan nan nan nan nan nan nan nan nan
21 21 21 22 24 29 36 45 50 46 39 36 39 30 27 30 33 36 36 36 37 39 40 40 41 41 37 35 36 38 39 38 38 38 39 40 40 40 39 38 40 40 42 41 40 41 43 42 43 43 44 44 nan nan nan nan nan nan nan nan nan nan nan nan nan nan nan nan nan nan nan nan nan nan
35 34 27 26 29 39 48 43 36 34 32 37 39 34 31 32 35 36 39 41 41 41 41 41 43 44 43 41 40 40 38 37 37 38 39 41 41 40 40 42 41 42 45 42 41 42 41 43 43 nan nan nan nan nan nan nan nan nan nan nan nan nan nan nan nan nan nan nan nan nan nan nan nan nan
37 26 23 27 32 44 44 34 31 36 38 38 39 39 38 39 40 43 44 46 46 45 44 44 44 45 45 43 42 41 41 41 41 41 41 42 41 39 40 42 43 42 44 42 41 41 41 44 nan nan nan nan nan nan nan nan nan nan nan nan nan nan nan nan nan nan nan nan nan nan nan nan nan nan
30 32 34 37 41 44 44 40 38 37 41 41 42 42 44 46 47 48 47 47 46 46 45 45 45 45 45 43 44 44 44 44 43 43 42 41 42 42 42 41 42 43 43 42 42 43 43 47 nan nan nan nan nan nan nan nan nan nan nan nan nan nan nan nan nan nan nan nan nan nan nan nan nan nan
37 39 39 41 43 44 45 44 43 44 45 44 45 47 48 51 53 53 51 49 49 49 48 48 47 46 45 44 44 44 45 46 45 44 43 43 44 45 45 44 45 47 47 47 46 46 47 nan nan nan nan nan nan nan nan nan nan nan nan nan nan nan nan nan nan nan nan nan nan nan nan nan nan nan
39 38 39 41 44 45 45 45 48 48 50 50 51 53 53 54 54 55 55 54 53 50 49 49 50 47 47 46 47 47 46 47 47 46 47 47 48 47 47 48 49 50 50 49 50 48 49 nan nan nan nan nan nan nan nan nan nan nan nan nan nan nan nan nan nan nan nan nan nan nan nan nan nan nan
Wind_Direction
80 82 77 70 80 91 101 115 119 123 125 118 120 117 107 109 116 113 113 107 101 106 100 102 110 114 108 99 98 86 77 76 70 57 51 50 45 47 50 51 49 47 47 48 49 49 49 49 49 50 50 49 47 43 46 45 44 43 42 42 41 40 38 36 34 33 32 30 28 27 27 24 23 23
76 78 82 79 80 89 96 96 118 127 122 127 121 117 124 119 108 101 108 107 94 97 109 105 114 126 137 119 107 67 67 60 59 53 48 46 40 41 50 55 49 45 46 47 48 48 47 47 47 47 47 46 45 44 43 42 42 42 41 40 40 39 38 36 33 31 30 29 27 26 25 24 21 21
68 73 75 82 84 90 96 106 118 122 127 124 126 130 138 125 129 108 113 120 114 95 108 117 118 133 131 137 142 135 98 77 69 57 50 48 47 45 48 59 49 43 44 44 45 45 44 45 44 44 43 41 40 39 38 37 37 37 38 38 37 36 35 34 32 30 28 27 25 25 24 24 23 21
64 64 70 74 78 88 97 105 107 105 114 127 122 131 131 133 132 139 126 100 104 107 101 113 125 127 127 137 140 116 94 78 75 58 51 49 47 34 34 53 48 42 42 42 43 42 42 43 42 41 40 38 37 35 34 33 33 33 32 33 33 33 32 30 29 28 26 25 24 23 22 22 22 21
71 64 65 72 77 84 86 92 97 106 110 125 132 137 144 133 144 148 130 114 116 131 119 112 119 145 160 154 81 67 70 77 71 62 51 38 18 17 27 37 45 41 40 41 41 39 40 41 40 39 37 35 33 32 30 30 29 29 28 27 27 27 28 27 26 25 23 22 21 20 20 20 21 20
73 71 70 76 74 75 68 75 79 80 113 120 122 133 131 125 125 129 155 109 131 124 156 155 156 151 193 111 52 32 67 76 75 79 68 30 0 12 21 37 34 36 36 39 38 38 39 39 36 34 32 32 30 28 27 26 26 26 25 22 21 21 21 21 21 20 20 19 18 17 17 18 19 18
67 68 69 72 74 69 65 76 82 97 69 66 79 101 125 125 127 137 127 157 130 123 133 168 176 188 192 33 101 59 41 62 75 84 72 31 359 7 24 58 50 39 40 39 35 35 33 27 26 26 25 25 25 25 24 23 22 22 20 17 15 14 14 16 16 17 16 16 15 15 16 17 17 16
55 55 57 63 62 61 48 56 64 93 130 2 19 73 110 117 119 135 149 141 138 156 141 185 231 196 215 156 107 87 63 66 77 77 86 358 3 27 46 84 61 17 31 27 24 12 4 5 7 10 14 21 25 25 22 20 21 22 21 19 18 17 13 8 10 11 12 12 11 12 14 15 16 16
46 46 43 47 40 31 32 38 18 14 42 138 201 165 169 17 113 141 149 143 177 165 142 179 213 221 223 224 196 226 116 104 104 126 82 29 19 29 50 136 250 347 15 10 343 328 320 329 347 360 11 20 24 25 23 21 20 21 20 16 11 8 5 3 2 4 5 nan 7 9 11 13 14 16
41 39 37 33 19 12 14 22 7 332 339 284 217 188 213 263 262 250 155 173 188 215 179 200 198 227 219 209 209 254 302 124 148 159 96 13 5 1 19 175 269 315 327 326 321 316 321 329 340 351 0 13 21 25 22 16 14 9 360 357 356 353 350 349 350 351 353 356 1 5 9 12 14 16
32 29 29 22 8 7 9 10 2 346 326 308 309 291 221 242 264 277 284 264 234 242 229 226 250 229 239 264 177 241 270 269 278 165 195 349 344 328 336 323 304 303 303 308 313 313 321 327 332 342 357 8 13 12 10 1 344 338 345 348 340 333 331 331 333 335 336 340 347 356 4 9 14 15
41 23 14 8 1 2 0 359 1 336 338 310 303 291 258 242 241 237 249 259 266 249 244 245 225 241 238 240 262 248 245 230 233 295 317 334 340 317 330 344 325 300 290 298 307 311 318 321 326 330 342 354 350 341 346 334 333 341 343 333 322 317 nan nan nan nan nan nan nan 335 350 0 7 13
32 26 11 358 350 350 2 5 2 354 345 320 321 310 280 257 246 237 233 237 240 236 243 226 238 231 220 235 231 220 238 246 227 269 281 295 309 302 297 325 317 309 297 302 308 309 310 316 321 323 329 335 326 328 327 336 337 338 328 314 nan nan nan nan nan nan nan nan nan nan 323 339 355 5
283 356 358 358 13 8 5 1 4 8 11 6 345 330 306 295 267 248 238 233 237 238 240 245 246 232 226 225 252 253 254 259 257 248 267 279 277 281 296 302 301 300 295 288 289 298 305 308 315 315 323 325 321 326 nan 337 340 326 314 nan nan nan nan nan nan nan nan nan nan nan nan 317 333 350
278 283 315 319 1 359 352 348 357 0 6 12 18 18 358 328 307 274 251 235 237 239 241 246 251 253 228 214 250 258 255 265 269 277 280 281 272 275 272 270 289 298 294 288 290 294 299 303 307 313 319 317 317 nan 325 329 318 nan nan nan nan nan nan nan nan nan nan nan nan nan nan nan 315 328
267 277 282 282 280 288 306 314 320 339 357 7 13 17 13 4 354 330 291 257 237 238 237 240 248 251 249 227 245 249 255 263 270 273 276 276 274 273 277 289 289 300 296 296 298 302 301 299 305 311 317 311 315 314 315 nan nan nan nan nan nan nan nan nan nan nan nan nan nan nan nan nan nan nan
269 266 266 267 273 280 323 317 302 303 319 347 4 10 15 19 3 338 323 302 269 244 238 241 239 255 248 241 250 263 262 267 267 277 273 277 276 282 284 288 290 292 300 298 298 298 297 295 302 308 314 310 311 309 nan nan nan nan nan nan nan nan nan nan nan nan nan nan nan nan nan nan nan nan
266 264 264 267 268 277 286 291 294 290 297 305 313 323 323 321 335 334 314 295 252 236 236 238 238 242 254 248 253 261 261 258 263 269 275 283 280 285 290 289 294 299 294 298 295 293 296 295 297 307 311 309 306 309 nan nan nan nan nan nan nan nan nan nan nan nan nan nan nan nan nan nan nan nan
268 263 262 263 267 269 276 284 296 294 294 292 301 308 314 317 314 299 285 280 277 266 242 233 234 233 242 243 248 252 260 267 275 283 288 290 288 285 280 281 291 297 298 297 290 296 297 293 293 306 308 308 301 306 nan nan nan nan nan nan nan nan nan nan nan nan nan nan nan nan nan nan nan nan
262 265 265 260 260 262 267 283 312 310 296 292 300 304 306 305 302 292 289 295 288 284 273 250 238 235 233 235 240 248 255 264 272 276 277 277 279 281 281 288 290 295 299 295 292 292 291 291 292 300 302 302 296 298 nan nan nan nan nan nan nan nan nan nan nan nan nan nan nan nan nan nan nan nan
261 264 265 262 258 258 262 279 299 313 308 287 293 296 299 301 296 287 272 279 289 287 286 285 265 241 232 222 223 240 260 269 275 276 280 287 287 285 284 286 290 293 293 290 289 291 288 287 287 291 296 300 298 nan nan nan nan nan nan nan nan nan nan nan nan nan nan nan nan nan nan nan nan nan
260 262 278 274 262 258 258 278 296 310 301 288 286 285 290 295 296 284 272 267 271 288 292 287 271 249 237 230 225 235 257 275 277 278 286 283 286 291 291 292 292 288 286 288 287 287 289 286 285 287 293 296 nan nan nan nan nan nan nan nan nan nan nan nan nan nan nan nan nan nan nan nan nan nan
257 258 261 280 274 262 261 276 287 305 303 291 288 287 286 294 292 286 274 274 269 266 264 260 259 255 258 254 251 250 262 279 284 282 284 282 287 291 290 288 283 283 287 292 292 289 292 288 287 288 286 291 nan nan nan nan nan nan nan nan nan nan nan nan nan nan nan nan nan nan nan nan nan nan
252 257 257 261 269 273 270 273 282 293 306 290 279 278 283 286 287 278 275 280 276 268 268 263 265 264 261 263 262 262 268 276 283 289 290 290 291 291 290 292 296 296 300 301 299 297 295 293 291 290 292 293 nan nan nan nan nan nan nan nan nan nan nan nan nan nan nan nan nan nan nan nan nan nan
249 255 258 256 262 269 270 272 278 286 295 296 278 277 279 285 287 274 275 277 282 271 266 263 262 265 267 269 268 273 280 287 288 289 288 287 288 289 293 298 303 303 303 303 302 294 295 294 293 292 289 290 nan nan nan nan nan nan nan nan nan nan nan nan nan nan nan nan nan nan nan nan nan nan
241 249 252 253 260 271 271 272 272 274 278 294 272 268 286 287 285 277 276 273 271 269 266 264 265 267 270 271 275 280 285 288 289 288 287 286 287 291 296 301 300 297 294 296 296 292 289 288 293 293 292 289 nan nan nan nan nan nan nan nan nan nan nan nan nan nan nan nan nan nan nan nan nan nan
239 243 246 247 254 262 268 268 268 267 273 267 268 278 259 260 267 269 270 270 269 268 268 268 268 269 273 278 280 282 281 281 284 285 285 286 289 292 292 292 294 296 296 290 295 295 289 286 287 290 291 292 294 295 296 298 300 298 298 nan nan nan nan nan nan nan nan nan nan nan nan nan nan nan
240 239 242 243 249 256 261 263 264 268 273 269 276 270 264 257 256 261 266 268 270 270 272 272 272 274 276 278 277 276 277 280 283 284 284 287 290 291 293 292 293 295 292 292 295 292 288 286 286 287 291 296 298 297 299 299 302 302 302 nan nan nan nan nan nan nan nan nan nan nan nan nan nan nan
243 243 247 247 248 251 255 259 259 256 260 270 263 262 265 264 258 259 263 266 270 272 275 277 278 277 277 277 274 272 273 275 275 278 280 285 290 293 293 294 293 294 297 300 297 289 284 286 288 288 289 292 296 297 298 302 303 301 nan nan nan nan nan nan nan nan nan nan nan nan nan nan nan nan
260 254 249 247 246 246 249 251 253 254 256 263 271 266 261 258 259 259 261 264 270 274 277 280 281 279 273 271 269 269 271 275 281 285 287 289 290 290 289 288 292 296 302 306 303 292 283 285 287 290 291 292 294 296 299 300 299 300 nan nan nan nan nan nan nan nan nan nan nan nan nan nan nan nan
239 237 240 241 243 248 257 262 260 261 259 257 256 260 263 265 264 263 265 270 274 277 279 278 276 274 272 270 272 275 277 278 281 285 286 286 288 287 288 290 294 295 298 303 303 298 293 292 293 293 291 291 288 294 298 299 299 301 nan nan nan nan nan nan nan nan nan nan nan nan nan nan nan nan
241 238 238 238 241 248 248 252 254 259 263 267 266 267 269 270 269 268 271 269 266 269 272 271 269 269 272 277 277 272 273 277 280 282 284 285 286 288 289 290 297 299 299 301 300 298 296 296 295 293 292 295 294 295 293 294 299 nan nan nan nan nan nan nan nan nan nan nan nan nan nan nan nan nan
245 243 244 244 247 251 255 258 261 264 267 269 270 272 271 271 272 272 272 273 272 270 268 271 274 274 270 267 265 270 274 278 282 281 283 287 291 291 288 294 298 301 303 306 305 302 296 292 291 292 293 293 296 297 294 292 nan nan nan nan nan nan nan nan nan nan nan nan nan nan nan nan nan nan
249 248 245 247 250 254 258 263 266 269 270 270 271 272 272 273 274 276 272 266 260 263 270 268 266 267 271 273 276 279 282 281 283 287 291 295 297 296 294 296 299 300 300 303 305 304 300 295 293 289 290 292 295 300 299 nan nan nan nan nan nan nan nan nan nan nan nan nan nan nan nan nan nan nan
251 247 249 249 251 255 259 265 269 271 271 272 273 273 273 272 267 256 248 255 266 273 263 258 265 276 282 283 283 285 285 288 290 291 295 297 299 299 298 297 297 298 299 300 302 302 297 294 290 286 287 287 292 295 nan nan nan nan nan nan nan nan nan nan nan nan nan nan nan nan nan nan nan nan
253 250 251 252 255 260 263 266 267 268 270 272 272 270 269 265 261 272 287 286 272 272 278 281 283 290 291 291 292 291 289 290 291 294 296 297 298 297 296 296 296 298 299 300 300 297 291 291 289 289 290 291 291 290 295 nan nan nan nan nan nan nan nan nan nan nan nan nan nan nan nan nan nan nan
250 250 253 254 255 260 262 263 266 268 270 269 264 259 261 269 275 282 295 283 285 285 288 290 295 294 290 285 283 286 289 291 293 296 298 298 297 296 295 293 294 296 297 296 293 294 290 288 290 291 292 293 296 301 305 nan nan nan nan nan nan nan nan nan nan nan nan nan nan nan nan nan nan nan
255 250 249 249 252 257 260 262 264 265 263 256 254 257 265 282 291 300 283 287 292 292 294 295 288 289 292 286 276 277 290 296 295 296 299 297 296 295 295 295 293 293 293 288 288 293 291 292 294 295 294 296 300 302 302 nan nan nan nan nan nan nan nan nan nan nan nan nan nan nan nan nan nan nan
240 238 242 247 254 259 260 259 257 251 251 256 264 272 279 284 293 294 296 303 301 297 295 295 297 299 295 289 279 280 290 295 296 298 299 300 299 296 293 292 291 288 287 287 285 287 290 291 294 294 296 298 300 302 nan nan nan nan nan nan nan nan nan nan nan nan nan nan nan nan nan nan nan nan
238 235 238 242 246 250 247 246 246 253 262 274 279 283 282 285 292 297 299 297 295 294 298 301 303 301 301 297 291 288 290 294 296 296 299 299 298 296 294 294 295 293 290 290 287 286 291 295 296 296 297 300 nan nan nan nan nan nan nan nan nan nan nan nan nan nan nan nan nan nan nan nan nan nan
228 221 220 232 242 249 250 249 258 269 275 278 287 294 292 294 292 291 292 292 292 293 296 300 301 301 300 299 296 294 293 290 289 291 294 296 296 294 294 293 292 293 294 292 289 287 292 298 303 nan nan nan nan nan nan nan nan nan nan nan nan nan nan nan nan nan nan nan nan nan nan nan nan nan
248 244 234 238 251 258 261 264 268 272 274 282 287 289 289 285 283 285 285 285 287 292 296 298 297 295 294 294 294 293 293 291 290 291 294 294 294 293 291 292 295 292 292 293 290 291 292 290 nan nan nan nan nan nan nan nan nan nan nan nan nan nan nan nan nan nan nan nan nan nan nan nan nan nan
260 253 243 243 249 259 267 270 270 271 270 272 274 276 276 277 277 280 281 284 287 291 294 293 290 289 289 291 291 291 289 289 290 292 293 293 293 293 292 293 293 294 295 293 290 289 290 289 nan nan nan nan nan nan nan nan nan nan nan nan nan nan nan nan nan nan nan nan nan nan nan nan nan nan
250 248 246 246 249 256 262 266 266 265 267 269 270 270 271 274 278 282 286 288 288 288 288 289 290 290 290 289 288 288 289 291 293 294 293 293 292 292 291 290 291 291 291 291 290 290 288 nan nan nan nan nan nan nan nan nan nan nan nan nan nan nan nan nan nan nan nan nan nan nan nan nan nan nan
256 253 250 247 248 248 250 255 260 263 264 265 267 269 272 275 279 283 285 285 285 285 287 288 289 288 287 289 290 289 287 287 289 289 288 288 288 288 287 288 288 288 289 289 290 289 287 nan nan nan nan nan nan nan nan nan nan nan nan nan nan nan nan nan nan nan nan nan nan nan nan nan nan nan